Weather History for LFLS - November, 2013

Change the Weather History Date:

Friday, November 29, 2013

  Actual Average Record
Temperature  
Mean Temperature 27 °F -  
Max Temperature 35 °F 41 °F - ()
Min Temperature 19 °F 30 °F - ()
Degree Days  
Heating Degree Days 38    
Moisture  
Dew Point 25 °F    
Average Humidity 83    
Maximum Humidity 100    
Minimum Humidity 65    
Precipitation  
Precipitation 0.00 in - - ()
Sea Level Pressure  
Sea Level Pressure 30.35 in    
Wind  
Wind Speed 4 mph ()    
Max Wind Speed 9 mph    
Max Gust Speed -    
Visibility 4.5 miles    
Events      
T = Trace of Precipitation, MM = Missing Value Source: Averaged Metar Reports

Daily Weather History Graph

Daily Weather History Graph

Search for Another Location

Airport or City:

Trip Planner

Search our weather history database for the weather conditions in past years. The results will help you decide how hot, cold, wet, or windy it might be!

Date:

Astronomy

Nov. 29, 2013 Rise Set
Actual Time 7:55 AM CET 4:58 PM CET
Civil Twilight 7:22 AM CET 5:31 PM CET
Nautical Twilight 6:45 AM CET 6:08 PM CET
Astronomical Twilight 6:10 AM CET 6:43 PM CET
Moon 3:33 AM CET (11/29) 2:42 PM CET (11/29)
Length of Visible Light 10h 09m
Length of Day
9h 02m
Waning Crescent, 16% of the Moon is Illuminated
Nov 29
Waning Crescent
Dec 3
New
Dec 9
First Quarter
Dec 17
Full
Dec 25
Last Quarter

Hourly Weather History & Observations

Time (CET) Temp. Windchill Dew Point Humidity Pressure Visibility Wind Dir Wind Speed Gust Speed Precip Events Conditions
12:00 AM 23.0 °F 18.4 °F 21.2 °F 93% 30.42 in - ESE 3.5 mph - N/A   Mist
12:30 AM 21.2 °F 14.9 °F 19.4 °F 93% 30.42 in - ESE 4.6 mph - N/A   Mist
1:00 AM 19.4 °F 12.8 °F 15.8 °F 86% 30.42 in - ESE 4.6 mph - N/A   Mist
1:30 AM 21.2 °F - 21.2 °F 100% 30.42 in - ESE 2.3 mph - N/A   Partly Cloudy
2:00 AM 21.2 °F 16.4 °F 19.4 °F 93% 30.42 in - East 3.5 mph - N/A   Partly Cloudy
2:30 AM 21.2 °F 14.9 °F 19.4 °F 93% 30.42 in - East 4.6 mph - N/A   Mostly Cloudy
3:00 AM 23.0 °F 18.4 °F 21.2 °F 93% 30.42 in - ESE 3.5 mph - N/A   Mostly Cloudy
3:30 AM 24.8 °F 20.5 °F 23.0 °F 93% 30.42 in - ESE 3.5 mph - N/A   Overcast
4:00 AM 24.8 °F 20.5 °F 23.0 °F 93% 30.42 in - ESE 3.5 mph - N/A   Overcast
4:30 AM 24.8 °F - 23.0 °F 93% 30.39 in 3.1 mi ESE 2.3 mph - N/A   Overcast
5:00 AM 26.6 °F 22.6 °F 23.0 °F 86% 30.39 in 3.1 mi ESE 3.5 mph - N/A   Overcast
5:30 AM 26.6 °F - 24.8 °F 93% 30.42 in 3.7 mi ESE 2.3 mph - N/A   Overcast
6:00 AM 26.6 °F 21.2 °F 24.8 °F 93% 30.39 in 3.7 mi East 4.6 mph - N/A   Overcast
6:30 AM 28.4 °F 23.3 °F 24.8 °F 86% 30.39 in 3.7 mi East 4.6 mph - N/A   Overcast
7:00 AM 28.4 °F 22.2 °F 24.8 °F 86% 30.39 in 4.3 mi East 5.8 mph - N/A   Overcast
7:30 AM 28.4 °F 21.2 °F 23.0 °F 80% 30.39 in 4.3 mi East 6.9 mph - N/A   Overcast
8:00 AM 28.4 °F 22.2 °F 23.0 °F 80% 30.39 in 5.0 mi East 5.8 mph - N/A   Overcast
8:30 AM 28.4 °F 20.4 °F 23.0 °F 80% 30.42 in 5.0 mi East 8.1 mph - N/A   Overcast
9:00 AM 28.4 °F 19.7 °F 23.0 °F 80% 30.42 in 5.0 mi East 9.2 mph - N/A   Overcast
9:30 AM 28.4 °F 21.2 °F 23.0 °F 80% 30.42 in 5.0 mi East 6.9 mph - N/A   Overcast
10:00 AM 30.2 °F 23.4 °F 24.8 °F 80% 30.39 in 5.6 mi East 6.9 mph - N/A   Overcast
10:30 AM 30.2 °F 25.4 °F 24.8 °F 80% 30.39 in 5.6 mi East 4.6 mph - N/A   Overcast
11:00 AM 30.2 °F 24.3 °F 24.8 °F 80% 30.39 in 6.2 mi East 5.8 mph - N/A   Overcast
11:30 AM 32.0 °F 26.4 °F 24.8 °F 75% 30.39 in 6.2 mi East 5.8 mph - N/A   Overcast
12:00 PM 32.0 °F 26.4 °F 24.8 °F 75% 30.36 in 6.2 mi East 5.8 mph - N/A   Overcast
12:30 PM 33.8 °F 30.8 °F 24.8 °F 70% 30.36 in 5.6 mi East 3.5 mph - N/A   Overcast
1:00 PM 33.8 °F - 24.8 °F 70% 30.36 in 5.6 mi Variable 2.3 mph - N/A   Overcast
1:30 PM 33.8 °F - 24.8 °F 70% 30.36 in 5.6 mi Variable 1.2 mph - N/A   Overcast
2:00 PM 35.6 °F - 24.8 °F 65% 30.33 in 5.6 mi Variable 1.2 mph - N/A   Overcast
2:30 PM 33.8 °F - 24.8 °F 70% 30.33 in 5.6 mi West 2.3 mph - N/A   Overcast
3:00 PM 33.8 °F 30.8 °F 26.6 °F 75% 30.33 in 5.0 mi West 3.5 mph - N/A   Overcast
3:30 PM 33.8 °F - 26.6 °F 75% 30.33 in 5.0 mi WSW 2.3 mph - N/A   Overcast
4:00 PM 33.8 °F - 26.6 °F 75% 30.33 in 5.0 mi Variable 2.3 mph - N/A   Overcast
4:30 PM 33.8 °F - 26.6 °F 75% 30.30 in 4.3 mi South 2.3 mph - N/A   Overcast
5:00 PM 33.8 °F - 28.4 °F 81% 30.30 in 4.3 mi Calm Calm - N/A   Overcast
5:30 PM 33.8 °F - 28.4 °F 81% 30.30 in 3.7 mi Calm Calm - N/A   Overcast
6:00 PM 32.0 °F - 28.4 °F 87% 30.30 in 3.7 mi Variable 2.3 mph - N/A   Overcast
6:30 PM 32.0 °F - 28.4 °F 87% 30.30 in 4.3 mi Calm Calm - N/A   Overcast
7:00 PM 32.0 °F - 28.4 °F 87% 30.30 in 3.7 mi Variable 2.3 mph - N/A   Overcast
7:30 PM 33.8 °F - 28.4 °F 81% 30.30 in 3.7 mi Variable 2.3 mph - N/A   Overcast
8:00 PM 32.0 °F 27.5 °F 28.4 °F 87% 30.30 in 3.7 mi ESE 4.6 mph - N/A   Overcast
8:30 PM 33.8 °F 29.6 °F 30.2 °F 87% 30.30 in 3.7 mi ESE 4.6 mph - N/A   Overcast
9:00 PM 33.8 °F 30.8 °F 30.2 °F 87% 30.27 in 3.7 mi NE 3.5 mph - N/A   Overcast
9:30 PM 33.8 °F 29.6 °F 28.4 °F 81% 30.27 in 4.3 mi East 4.6 mph - N/A   Overcast
10:00 PM 33.8 °F 30.8 °F 28.4 °F 81% 30.24 in 3.1 mi East 3.5 mph - N/A   Overcast
10:30 PM 33.8 °F 30.8 °F 28.4 °F 81% 30.24 in 3.1 mi ENE 3.5 mph - N/A   Overcast
11:00 PM 33.8 °F 29.6 °F 28.4 °F 81% 30.21 in 3.1 mi ESE 4.6 mph - N/A   Mostly Cloudy
11:30 PM 32.0 °F 27.5 °F 28.4 °F 87% 30.21 in 3.1 mi East 4.6 mph - N/A   Overcast